TimeAKST,TemperatureF,Dew PointF,Humidity,Sea Level PressureIn,VisibilityMPH,Wind Direction,Wind SpeedMPH,Gust SpeedMPH,PrecipitationIn,Events,Conditions,WindDirDegrees,DateUTC
12:33 AM,37.4,33.8,87,29.85,10.0,Calm,Calm,-,N/A,,Overcast,0,2013-03-07 09:33:00
12:53 AM,37.9,33.1,83,29.85,10.0,Variable,5.8,-,N/A,,Overcast,0,2013-03-07 09:53:00
1:00 AM,37.4,33.8,87,29.84,10.0,Calm,Calm,-,N/A,,Overcast,0,2013-03-07 10:00:00
1:53 AM,39.9,33.1,77,29.83,10.0,SSW,15.0,23.0,N/A,,Overcast,210,2013-03-07 10:53:00
3:53 AM,41.0,33.1,73,29.76,10.0,SSW,20.7,27.6,0.00,,Overcast,210,2013-03-07 12:53:00
4:07 AM,39.2,33.8,81,29.76,10.0,SSW,19.6,26.5,N/A,,Overcast,210,2013-03-07 13:07:00
4:16 AM,39.2,32.0,75,29.75,10.0,SSW,18.4,29.9,N/A,,Overcast,200,2013-03-07 13:16:00
4:53 AM,39.9,32.0,73,29.74,10.0,South,20.7,27.6,0.00,Rain,Light Rain,190,2013-03-07 13:53:00
5:53 AM,39.9,32.0,73,29.71,10.0,SE,15.0,29.9,0.00,,Overcast,140,2013-03-07 14:53:00
5:58 AM,39.2,32.0,75,29.71,10.0,SSE,10.4,29.9,N/A,,Overcast,150,2013-03-07 14:58:00
6:10 AM,39.2,32.0,75,29.71,10.0,ESE,9.2,18.4,N/A,,Overcast,120,2013-03-07 15:10:00
6:21 AM,37.4,33.8,87,29.71,10.0,SSE,11.5,19.6,N/A,,Overcast,160,2013-03-07 15:21:00
6:46 AM,39.2,30.2,70,29.69,10.0,SSW,27.6,34.5,N/A,,Overcast,200,2013-03-07 15:46:00
6:53 AM,39.9,30.9,70,29.69,10.0,SSW,20.7,34.5,N/A,,Overcast,200,2013-03-07 15:53:00
7:53 AM,39.9,30.9,70,29.67,10.0,SSW,23.0,32.2,N/A,,Overcast,200,2013-03-07 16:53:00
8:53 AM,39.9,30.0,68,29.66,10.0,SSW,23.0,28.8,N/A,,Overcast,200,2013-03-07 17:53:00
9:53 AM,41.0,28.0,60,29.65,10.0,SSW,19.6,26.5,N/A,,Overcast,200,2013-03-07 18:53:00
10:53 AM,39.9,27.0,60,29.63,10.0,SSW,19.6,29.9,N/A,,Overcast,210,2013-03-07 19:53:00
11:53 AM,39.9,27.0,60,29.62,10.0,SSW,24.2,32.2,N/A,,Overcast,210,2013-03-07 20:53:00
12:53 PM,41.0,26.1,55,29.61,10.0,South,13.8,29.9,N/A,,Overcast,180,2013-03-07 21:53:00
1:33 PM,37.4,30.2,75,29.62,6.0,SSW,23.0,29.9,0.00,Snow,Light Snow,210,2013-03-07 22:33:00
1:53 PM,37.0,32.0,82,29.62,6.0,SSW,12.7,21.9,0.01,Snow,Light Snow,210,2013-03-07 22:53:00
2:17 PM,37.4,32.0,81,29.60,4.0,SW,8.1,-,0.05,Rain,Light Rain,230,2013-03-07 23:17:00
2:51 PM,35.6,33.8,93,29.60,2.0,SSW,20.7,25.3,0.16,Snow,Light Snow,200,2013-03-07 23:51:00
2:53 PM,35.1,33.1,92,29.60,2.0,SSW,20.7,25.3,0.17,Snow,Light Snow,200,2013-03-07 23:53:00
3:37 PM,35.6,33.8,93,29.60,3.0,SSW,17.3,28.8,0.12,Snow,Light Snow,200,2013-03-08 00:37:00
3:53 PM,36.0,33.1,89,29.60,5.0,SSW,17.3,25.3,0.17,Snow,Light Snow,200,2013-03-08 00:53:00
4:53 PM,35.1,33.1,92,29.61,5.0,SSW,16.1,-,0.09,Rain,Light Rain,200,2013-03-08 01:53:00
5:53 PM,36.0,33.1,89,29.61,6.0,SSW,13.8,-,0.14,Rain,Light Rain,200,2013-03-08 02:53:00
6:53 PM,36.0,33.1,89,29.60,4.0,SSW,17.3,-,0.12,Snow,Light Snow,200,2013-03-08 03:53:00
7:36 PM,37.4,33.8,87,29.60,10.0,SSW,10.4,-,0.05,Rain,Light Rain,210,2013-03-08 04:36:00
7:53 PM,37.0,33.1,86,29.61,10.0,SSW,8.1,-,0.08,Rain,Light Rain,200,2013-03-08 04:53:00
8:38 PM,37.4,33.8,87,29.60,10.0,North,-9999.0,-,0.03,Rain,Light Rain,0,2013-03-08 05:38:00
8:53 PM,37.9,33.1,83,29.61,10.0,North,-9999.0,-,0.03,Rain,Light Rain,0,2013-03-08 05:53:00
9:27 PM,35.6,33.8,93,29.61,10.0,NNE,4.6,-,0.03,Rain,Light Rain,30,2013-03-08 06:27:00
9:46 PM,35.6,33.8,93,29.62,7.0,NNW,3.5,-,0.04,Snow,Light Snow,330,2013-03-08 06:46:00
9:53 PM,34.0,33.1,96,29.62,8.0,North,4.6,-,0.06,Snow,Light Snow,350,2013-03-08 06:53:00
10:53 PM,34.0,33.1,96,29.63,5.0,Calm,Calm,-,0.03,Rain,Light Rain,0,2013-03-08 07:53:00
11:14 PM,33.8,33.8,100,29.63,2.5,Calm,Calm,-,0.03,Rain,Light Rain,0,2013-03-08 08:14:00
11:30 PM,33.8,33.8,100,29.63,4.0,Calm,Calm,-,0.04,Rain,Light Rain,0,2013-03-08 08:30:00
11:53 PM,34.0,33.1,96,29.63,4.0,Calm,Calm,-,0.06,Rain,Light Rain,0,2013-03-08 08:53:00